Hourly Weather Zolochev

Today, 11 July, Saturday

Time Temperature Precipitation Wind Pressure Humidity
00:00 +19°C° 0 mm 3 mps 737 mmHg 89%
01:00 +19°C° 0 mm 3 mps 737 mmHg 90%
02:00 +19°C° 0 mm 2 mps 737 mmHg 90%
03:00 +18°C° 0 mm 2 mps 737 mmHg 89%
04:00 +18°C° 0 mm 2 mps 737 mmHg 87%
05:00 +18°C° 0 mm 2 mps 737 mmHg 85%
06:00 +20°C° 0 mm 2 mps 738 mmHg 82%
07:00 +23°C° 0 mm 2 mps 738 mmHg 79%
08:00 +25°C° 0 mm 2 mps 738 mmHg 76%
09:00 +26°C° 0 mm 2 mps 738 mmHg 72%
10:00 +27°C° 0 mm 2 mps 738 mmHg 69%
11:00 +28°C° 0 mm 2 mps 738 mmHg 66%
12:00 +28°C° 0.8 mm 2 mps 738 mmHg 65%
13:00 +28°C° 0.8 mm 1 mps 738 mmHg 64%
14:00 +29°C° 0.8 mm 1 mps 737 mmHg 63%
15:00 +28°C° 0.9 mm 1 mps 737 mmHg 67%
16:00 +28°C° 0.9 mm 1 mps 737 mmHg 70%
17:00 +27°C° 0.9 mm 1 mps 737 mmHg 74%
18:00 +25°C° 2.2 mm 1 mps 737 mmHg 79%
19:00 +24°C° 2.2 mm 2 mps 737 mmHg 84%
20:00 +21°C° 2.2 mm 3 mps 737 mmHg 89%
21:00 +19°C° 0.5 mm 4 mps 738 mmHg 92%
22:00 +17°C° 0.5 mm 5 mps 738 mmHg 94%
23:00 +15°C° 0.5 mm 5 mps 738 mmHg 96%

Tomorrow, 12 July, Sunday

Time Temperature Precipitation Wind Pressure Humidity
00:00 +14°C° 0 mm 5 mps 738 mmHg 96%
01:00 +14°C° 0 mm 5 mps 738 mmHg 95%
02:00 +13°C° 0 mm 5 mps 738 mmHg 95%
03:00 +13°C° 0 mm 5 mps 738 mmHg 95%
04:00 +13°C° 0 mm 4 mps 738 mmHg 96%
05:00 +12°C° 0 mm 4 mps 738 mmHg 96%
06:00 +12°C° 0.2 mm 5 mps 738 mmHg 96%
07:00 +12°C° 0.2 mm 5 mps 738 mmHg 96%
08:00 +11°C° 0.2 mm 6 mps 739 mmHg 95%
09:00 +11°C° 0.4 mm 6 mps 739 mmHg 95%
10:00 +11°C° 0.4 mm 6 mps 739 mmHg 95%
11:00 +10°C° 0.4 mm 7 mps 740 mmHg 95%
12:00 +10°C° 1.5 mm 7 mps 740 mmHg 95%
13:00 +10°C° 1.5 mm 6 mps 740 mmHg 95%
14:00 +10°C° 1.5 mm 6 mps 741 mmHg 95%
15:00 +10°C° 0.1 mm 5 mps 741 mmHg 93%
16:00 +12°C° 0.1 mm 4 mps 741 mmHg 91%
17:00 +12°C° 0.1 mm 4 mps 741 mmHg 89%
18:00 +12°C° 0 mm 3 mps 741 mmHg 90%
19:00 +13°C° 0 mm 2 mps 741 mmHg 90%
20:00 +13°C° 0 mm 1 mps 741 mmHg 91%
21:00 +12°C° 0 mm 1 mps 741 mmHg 92%
22:00 +10°C° 0 mm 2 mps 741 mmHg 93%
23:00 +10°C° 0 mm 2 mps 741 mmHg 95%

Day after tomorrow, 13 July, Monday

Time Temperature Precipitation Wind Pressure Humidity
00:00 +10°C° 0 mm 2 mps 741 mmHg 95%
01:00 +9°C° 0 mm 2 mps 741 mmHg 95%
02:00 +9°C° 0 mm 2 mps 741 mmHg 96%
03:00 +9°C° 0 mm 2 mps 741 mmHg 96%
04:00 +9°C° 0 mm 2 mps 740 mmHg 95%
05:00 +9°C° 0 mm 2 mps 740 mmHg 95%
06:00 +10°C° 0 mm 3 mps 740 mmHg 93%
07:00 +12°C° 0 mm 3 mps 740 mmHg 90%
08:00 +13°C° 0 mm 4 mps 740 mmHg 87%
09:00 +14°C° 0.1 mm 4 mps 740 mmHg 81%
10:00 +17°C° 0.1 mm 4 mps 740 mmHg 75%
11:00 +18°C° 0.1 mm 4 mps 740 mmHg 69%
12:00 +17°C° 0.2 mm 5 mps 740 mmHg 70%
13:00 +17°C° 0.2 mm 5 mps 740 mmHg 70%
14:00 +17°C° 0.2 mm 5 mps 740 mmHg 71%
15:00 +17°C° 0.1 mm 5 mps 740 mmHg 71%
16:00 +17°C° 0.1 mm 5 mps 739 mmHg 71%
17:00 +18°C° 0.1 mm 4 mps 739 mmHg 72%
18:00 +17°C° 0 mm 4 mps 739 mmHg 77%
19:00 +16°C° 0 mm 3 mps 739 mmHg 81%
20:00 +15°C° 0 mm 2 mps 739 mmHg 86%
21:00 +14°C° 0 mm 2 mps 739 mmHg 88%
22:00 +13°C° 0 mm 2 mps 739 mmHg 91%
23:00 +12°C° 0 mm 2 mps 739 mmHg 93%

14 July, Tuesday

Time Temperature Precipitation Wind Pressure Humidity
00:00 +12°C° 0 mm 2 mps 739 mmHg 93%
01:00 +12°C° 0 mm 2 mps 739 mmHg 94%
02:00 +10°C° 0 mm 2 mps 739 mmHg 95%
03:00 +10°C° 0 mm 2 mps 739 mmHg 95%
04:00 +10°C° 0 mm 2 mps 739 mmHg 95%
05:00 +9°C° 0 mm 2 mps 739 mmHg 96%
06:00 +12°C° 0 mm 2 mps 739 mmHg 92%
07:00 +14°C° 0 mm 2 mps 739 mmHg 89%
08:00 +16°C° 0 mm 2 mps 739 mmHg 86%
09:00 +17°C° 0 mm 3 mps 739 mmHg 81%
10:00 +18°C° 0 mm 3 mps 739 mmHg 76%
11:00 +19°C° 0 mm 3 mps 739 mmHg 71%
12:00 +20°C° 0.2 mm 3 mps 739 mmHg 70%
13:00 +20°C° 0.2 mm 3 mps 739 mmHg 70%
14:00 +20°C° 0.2 mm 3 mps 739 mmHg 69%
15:00 +20°C° 0.2 mm 3 mps 738 mmHg 70%
16:00 +20°C° 0.2 mm 2 mps 738 mmHg 72%
17:00 +20°C° 0.2 mm 2 mps 738 mmHg 73%
18:00 +19°C° 0 mm 2 mps 738 mmHg 77%
19:00 +18°C° 0 mm 1 mps 738 mmHg 82%
20:00 +16°C° 0 mm 1 mps 738 mmHg 86%
21:00 +14°C° 0 mm 0 mps 738 mmHg 86%
22:00 +14°C° 0 mm 0 mps 738 mmHg 87%
23:00 +13°C° 0 mm 0 mps 738 mmHg 88%

15 July, Wednesday

Time Temperature Precipitation Wind Pressure Humidity
00:00 +13°C° 0 mm 0 mps 738 mmHg 88%
01:00 +13°C° 0 mm 1 mps 738 mmHg 89%
02:00 +13°C° 0 mm 1 mps 738 mmHg 90%
03:00 +13°C° 0 mm 1 mps 737 mmHg 90%
04:00 +13°C° 0 mm 1 mps 737 mmHg 90%
05:00 +12°C° 0 mm 0 mps 737 mmHg 90%
06:00 +14°C° 0 mm 1 mps 737 mmHg 86%
07:00 +16°C° 0 mm 1 mps 737 mmHg 83%
08:00 +19°C° 0 mm 1 mps 738 mmHg 79%
09:00 +20°C° 0 mm 1 mps 737 mmHg 74%
10:00 +21°C° 0 mm 1 mps 737 mmHg 70%
11:00 +23°C° 0 mm 2 mps 737 mmHg 65%
12:00 +23°C° 0.1 mm 2 mps 737 mmHg 63%
13:00 +24°C° 0.1 mm 2 mps 737 mmHg 60%
14:00 +24°C° 0.1 mm 2 mps 737 mmHg 58%
15:00 +24°C° 0 mm 2 mps 736 mmHg 58%
16:00 +25°C° 0 mm 2 mps 736 mmHg 58%
17:00 +25°C° 0 mm 1 mps 736 mmHg 58%
18:00 +23°C° 0.1 mm 1 mps 736 mmHg 65%
19:00 +20°C° 0.1 mm 2 mps 735 mmHg 71%
20:00 +19°C° 0.1 mm 2 mps 735 mmHg 77%
21:00 +18°C° 0.1 mm 2 mps 735 mmHg 79%
22:00 +17°C° 0.1 mm 2 mps 735 mmHg 82%
23:00 +17°C° 0.1 mm 3 mps 735 mmHg 84%

16 July, Thursday

Time Temperature Precipitation Wind Pressure Humidity
00:00 +16°C° 0 mm 3 mps 735 mmHg 85%
01:00 +16°C° 0 mm 3 mps 735 mmHg 87%
02:00 +14°C° 0 mm 3 mps 735 mmHg 88%
03:00 +14°C° 0 mm 3 mps 735 mmHg 89%
04:00 +14°C° 0 mm 3 mps 735 mmHg 91%
05:00 +14°C° 0 mm 3 mps 735 mmHg 93%
06:00 +14°C° 0.3 mm 3 mps 735 mmHg 94%
07:00 +14°C° 0.3 mm 3 mps 735 mmHg 95%
08:00 +14°C° 0.3 mm 3 mps 735 mmHg 96%
09:00 +16°C° 0.3 mm 3 mps 735 mmHg 95%
10:00 +16°C° 0.3 mm 3 mps 735 mmHg 94%
11:00 +16°C° 0.3 mm 3 mps 735 mmHg 93%
12:00 +17°C° 0.2 mm 4 mps 735 mmHg 88%
13:00 +18°C° 0.2 mm 4 mps 735 mmHg 84%
14:00 +19°C° 0.2 mm 5 mps 735 mmHg 80%
15:00 +19°C° 0.2 mm 5 mps 735 mmHg 79%
16:00 +19°C° 0.2 mm 5 mps 735 mmHg 79%
17:00 +19°C° 0.2 mm 5 mps 735 mmHg 78%
18:00 +18°C° 0 mm 4 mps 735 mmHg 81%
19:00 +17°C° 0 mm 4 mps 735 mmHg 84%
20:00 +16°C° 0 mm 3 mps 735 mmHg 87%
21:00 +14°C° 0 mm 3 mps 735 mmHg 89%
22:00 +13°C° 0 mm 3 mps 735 mmHg 92%
23:00 +12°C° 0 mm 3 mps 736 mmHg 94%
Show more